Regional Weather Roundup
Issued by NWS Newport/Morehead, NC

Current Version | Previous Version | Graphics & Text | Print | Product List | Glossary On
Versions: 1 2 3 4 5 6 7 8 9 10 11 12 13 14 15 16 17 18 19 20 21 22 23 24 25 26 27 28 29 30 31 32 33 34 35 36 37 38 39 40 41 42 43 44 45 46 47 48 49 50
000 ASUS42 KMHX 082125 RWRMHX WEATHER ROUNDUP FOR EASTERN NORTH CAROLINA NATIONAL WEATHER SERVICE NEWPORT/MOREHEAD CITY NC 400 PM EST MON FEB 08 2016 NOTE: "FAIR" INDICATES FEW OR NO CLOUDS BELOW 12,000 FEET WITH NO SIGNIFICANT WEATHER AND/OR OBSTRUCTIONS TO VISIBILITY NCZ015>017-031-032-045>047-102-103-082200- NORTH COAST CITY SKY/WX TMP DP RH WIND PRES REMARKS EDENTON MOSUNNY 51 32 49 SE6 29.72S ELIZABETH CITY MOSUNNY 46 34 62 SE7 29.73S KITTY HAWK PTCLDY 46 34 62 E5 29.73R MANTEO SUNNY 44 35 72 SE8 29.75S $$ NCZ045>047-081-094-103-104-082200- CENTRAL COAST CITY SKY/WX TMP DP RH WIND PRES REMARKS FRISCO SUNNY 49 31 49 W5 29.76F SWANQUARTER N/A 50 N/A N/A SE8 29.71S $$ NCZ095-097-098-100-101-082200- SOUTHERN COAST CITY SKY/WX TMP DP RH WIND PRES REMARKS BEAUFORT SUNNY 51 35 54 SW13 29.75F CEDAR ISLAND N/A 54 N/A N/A S8G14 29.77F JACKSONVILLE MOSUNNY 52 33 48 S10G25 29.71F PINEY ISLAND CLEAR N/A N/A N/A S9 29.74S WILMINGTON SUNNY 55 37 50 S12 29.71F $$ NCZ011>013-027>030-043-044-078>080-089-090>093-098-082200- COASTAL PLAIN CITY SKY/WX TMP DP RH WIND PRES REMARKS AHOSKIE PTSUNNY 50 28 42 CALM 29.70S CLINTON SUNNY 56 34 42 S6 29.67F ELIZABETHTOWN SUNNY 56 30 37 S8 29.67F GOLDSBORO MOSUNNY 55 32 41 S10 29.66S GREENVILLE MOSUNNY 54 30 40 S7 29.73R HAVELOCK MOSUNNY 52 32 46 S12 29.74F KENANSVILLE N/A 55 28 36 S3 29.69S KINSTON SUNNY 54 30 40 S9 29.69F NEW BERN MOSUNNY 54 33 45 S13 29.72F RICHLANDS MOSUNNY 54 30 40 S9 29.70S ROCKY MOUNT SUNNY 53 32 44 S12 29.68F WASHINGTON MOSUNNY 53 31 43 CALM 29.70S WHITEVILLE SUNNY 58 30 35 SW12G18 29.68F $$ AMZ130-135-150-152-154-156-158-170-250-252-270-ANZ085-086-088-633-658-670-082200- MARINE OBSERVATIONS STATION/POSITION TIME TEMP WIND PRES WAVE SWELL AIR SEA DIR/SP/G HT/PER HT/PER (UTC) (F) (DEG/KT/KT) (MB) (FT/S) (FT/S) CHESAPEAKE LIGHT 2100 41 60/ 8/ 9 1007.6 64 E VA BEACH 2050 44 52 320/ 8/ 12 1007.0 15/13 15/13 DUCK 2100 44 70/ 6/ 7 1006.5 2 E DUCK 2011 44 N/A 11/13 10/13 OREGON INLET 2100 44 45 90/ 4/ 6 1007.4 13E OREGON INLT 2100 47 N/A 17/15 16/15 HATTERAS CG 2100 49 51 280/ 4/ 5 1007.2 DIAMOND BUOY 2050 48 74 310/ 8/ 10 1008.1 13/15 13/15 CAPE LOOKOUT NOT AVBL BEAUFORT LAB 2100 51 46 220/ 8/ 11 1006.1 30 SE NEW RVR IN 2008 54 61 1008.2 30 SE NEW RVR IN 2025 61 N/A 6/12 5/12 27 SE WRIGHTSVLE 2008 55 60 230/ 16/ 21 1008.0 5 SE WRIGHTSVLE 2008 50 52 200/ 12/ 16 1007.2 225 S CAPE HAT 2050 61 69 270/ 17/ 25 N/A 15/15 13/15 41 SE CHARLESTON 2050 58 65 220/ 23/ 27 1006.7 7/ 6 3/12 $$

USA.gov is the U.S. government's official web portal to all federal, state and local government web resources and services.